Regional Weather Roundup
Issued by NWS

Home | Current Version | Previous Version | Graphics & Text | Print | Product List | Glossary On
Versions: 1 2 3 4 5 6 7 8 9 10 11 12 13 14 15 16 17 18 19 20 21 22 23 24 25 26 27
000
ASUS45 KCYS 232010
RWRWY

WYOMING REGIONAL WEATHER ROUNDUP
NATIONAL WEATHER SERVICE CHEYENNE WY
100 PM MST MON JAN 23 2017

NOTE:  "FAIR" INDICATES FEW OR NO CLOUDS BELOW 12,000 FEET
WITH NO SIGNIFICANT WEATHER AND/OR OBSTRUCTIONS TO VISIBILITY.

WYZ001-232100-
YELLOWSTONE NATIONAL PARK

CITY           SKY/WX    TMP DP  RH WIND       PRES   REMARKS
LK YELLOWSTONE   N/A     14  10  84 CALM      29.49F
W YELLOWSTONE  NOT AVBL

$$
WYZ002>013-054>058-071-098>099-232100-
NORTHERN WYOMING

CITY           SKY/WX    TMP DP  RH WIND       PRES   REMARKS
JACKSON        LGT SNOW  19  19 100 CALM      29.48F VSB 1
CODY           FAIR      24  18  77 NE9       29.59F WCI  14
GREYBULL       FAIR      26  20  77 NW9       29.60F WCI  17
WORLAND        FAIR      25  21  85 NE8       29.58F WCI  16
SHERIDAN       FAIR      30  21  69 W12       29.62F WCI  20
BUFFALO        FAIR      30  19  63 N13       29.59F WCI  20
GILLETTE       FAIR      34  24  67 N10       29.58F WCI  26
HULETT         FAIR      32  21  64 NE3       29.59F
NEWCASTLE      CLOUDY    32  30  93 NW7       29.60F WCI  26

$$
WYZ014>020-022>026-101>103-232100-
CENTRAL WYOMING

CITY           SKY/WX    TMP DP  RH WIND       PRES   REMARKS
BIG PINEY      CLOUDY    21  17  84 N6        29.49R WCI  13
PINEDALE       LGT SNOW  21  19  93 W3        29.47F VSB 1
DUBOIS         NOT AVBL
LANDER         CLOUDY    26  17  68 N5        29.52F WCI  20
RIVERTON       CLOUDY    22  19  89 NW6       29.54F WCI  14
CASPER         PTSUNNY   36  26  67 N7        29.53F WCI  30
DOUGLAS        FAIR      43  23  45 NW14G21   29.53F

$$
WYZ021-027>030-104>119-232100-
SOUTHERN WYOMING

CITY           SKY/WX    TMP DP  RH WIND       PRES   REMARKS
EVANSTON       FAIR      27  23  85 S16       29.41F WCI  15
ROCK SPRINGS   CLOUDY    33  24  69 S8        29.46F WCI  26
RAWLINS        FAIR      35  24  64 SW22G30   29.50F WCI  23
LARAMIE        FAIR      32  26  78 SE8       29.52F WCI  25
CHEYENNE       CLOUDY    49  20  31 W17       29.52F
TORRINGTON     FAIR      46  23  40 CALM      29.53F

$$




USA.gov is the U.S. government's official web portal to all federal, state and local government web resources and services.